EXS7MP GMMN-LPPT

Flight info

Callsign EXS7MP
Flight time 1h 4m
Altitude 36000
Route LAKAM UR722 AMSEL DCT VATZI
Aircraft B738/M-SDE2E3FGHIRWXY/LB1

Departure

Time 2026-05-07 16:58
Airport Mohammed V International Airport (GMMN)

Arrival

Time 2026-05-07 18:02
Airport Lisbon Humberto Delgado Airport (LPPT)
Time Latitude Longitude Altitude Speed Heading
2026-05-07 16:12 33.37033 -7.58149 657 ft 0 kts 76°
2026-05-07 16:45 33.37029 -7.58169 656 ft 4 kts 85°
2026-05-07 16:45 33.37030 -7.58200 655 ft 4 kts 105°
2026-05-07 16:45 33.37041 -7.58229 654 ft 4 kts 126°
2026-05-07 16:45 33.37060 -7.58252 653 ft 4 kts 148°
2026-05-07 16:46 33.37076 -7.58261 654 ft 0 kts 163°
2026-05-07 16:50 33.37063 -7.58257 655 ft 5 kts 165°
2026-05-07 16:50 33.37000 -7.58236 653 ft 9 kts 164°
2026-05-07 16:50 33.36947 -7.58253 655 ft 9 kts 233°
2026-05-07 16:50 33.36924 -7.58329 657 ft 12 kts 253°
2026-05-07 16:51 33.36896 -7.58436 656 ft 11 kts 241°
2026-05-07 16:51 33.36826 -7.58454 653 ft 11 kts 163°
2026-05-07 16:51 33.36751 -7.58428 656 ft 12 kts 164°
2026-05-07 16:51 33.36641 -7.58391 655 ft 20 kts 164°
2026-05-07 16:52 33.36493 -7.58340 659 ft 22 kts 164°
2026-05-07 16:52 33.36347 -7.58291 656 ft 22 kts 164°
2026-05-07 16:52 33.36204 -7.58241 657 ft 21 kts 165°
2026-05-07 16:52 33.36065 -7.58194 658 ft 20 kts 164°
2026-05-07 16:53 33.35930 -7.58148 659 ft 20 kts 165°
2026-05-07 16:53 33.35799 -7.58103 660 ft 19 kts 164°
2026-05-07 16:53 33.35672 -7.58059 661 ft 19 kts 164°
2026-05-07 16:53 33.35549 -7.58017 660 ft 18 kts 165°
2026-05-07 16:54 33.35431 -7.57977 662 ft 17 kts 164°
2026-05-07 16:54 33.35318 -7.57947 663 ft 15 kts 184°
2026-05-07 16:54 33.35252 -7.58014 661 ft 13 kts 252°
2026-05-07 16:54 33.35231 -7.58098 663 ft 8 kts 255°
2026-05-07 16:55 33.35216 -7.58159 664 ft 7 kts 253°
2026-05-07 16:55 33.35203 -7.58218 664 ft 7 kts 260°
2026-05-07 16:55 33.35221 -7.58265 664 ft 7 kts 336°
2026-05-07 16:55 33.35249 -7.58275 665 ft 0 kts 344°
2026-05-07 16:57 33.35253 -7.58277 665 ft 4 kts 343°
2026-05-07 16:57 33.35393 -7.58324 663 ft 53 kts 344°
2026-05-07 16:57 33.35988 -7.58527 657 ft 121 kts 343°
2026-05-07 16:58 33.36965 -7.58862 716 ft 169 kts 344°
2026-05-07 16:58 33.38106 -7.59265 1565 ft 165 kts 344°
2026-05-07 16:58 33.39211 -7.59654 2487 ft 167 kts 349°
2026-05-07 16:58 33.40438 -7.59442 2867 ft 197 kts 30°
2026-05-07 16:59 33.41314 -7.58118 3339 ft 215 kts 68°
2026-05-07 16:59 33.41661 -7.56299 3708 ft 236 kts 74°
2026-05-07 16:59 33.42090 -7.54376 4320 ft 243 kts 73°
2026-05-07 16:59 33.42572 -7.52417 4971 ft 248 kts 72°
2026-05-07 17:00 33.43059 -7.50357 5370 ft 267 kts 74°
2026-05-07 17:00 33.43633 -7.48176 5742 ft 291 kts 65°
2026-05-07 17:00 33.44916 -7.46245 6362 ft 300 kts 35°
2026-05-07 17:00 33.46758 -7.45238 7485 ft 286 kts
2026-05-07 17:01 33.48714 -7.45196 8396 ft 284 kts 348°
2026-05-07 17:01 33.50691 -7.45593 9086 ft 291 kts 348°
2026-05-07 17:01 33.52707 -7.45982 9948 ft 292 kts 347°
2026-05-07 17:01 33.54717 -7.46428 10629 ft 301 kts 347°
2026-05-07 17:02 33.56875 -7.46847 10818 ft 327 kts 348°
2026-05-07 17:02 33.59202 -7.47254 11161 ft 344 kts 349°
2026-05-07 17:02 33.61533 -7.47830 11812 ft 347 kts 338°
2026-05-07 17:02 33.63760 -7.48971 12530 ft 348 kts 331°
2026-05-07 17:03 33.65933 -7.50272 12879 ft 349 kts 330°
2026-05-07 17:03 33.68146 -7.51561 12927 ft 354 kts 332°
2026-05-07 17:03 33.70401 -7.52752 13014 ft 357 kts 334°
2026-05-07 17:03 33.72723 -7.53875 13709 ft 359 kts 335°
2026-05-07 17:04 33.75056 -7.54941 14562 ft 358 kts 336°
2026-05-07 17:04 33.77379 -7.55969 15250 ft 361 kts 336°
2026-05-07 17:04 33.79752 -7.57003 15889 ft 365 kts 336°
2026-05-07 17:04 33.82164 -7.58043 16570 ft 369 kts 336°
2026-05-07 17:05 33.84593 -7.59088 17230 ft 372 kts 336°
2026-05-07 17:05 33.87047 -7.60141 17889 ft 376 kts 336°
2026-05-07 17:05 33.89504 -7.61197 18515 ft 379 kts 336°
2026-05-07 17:05 33.91998 -7.62269 19073 ft 382 kts 336°
2026-05-07 17:06 33.94521 -7.63355 19633 ft 386 kts 335°
2026-05-07 17:06 33.97055 -7.64446 20189 ft 389 kts 335°
2026-05-07 17:06 33.99617 -7.65551 20744 ft 392 kts 335°
2026-05-07 17:06 34.02201 -7.66666 21282 ft 395 kts 335°
2026-05-07 17:07 34.04814 -7.67793 21822 ft 399 kts 334°
2026-05-07 17:07 34.07402 -7.68912 22349 ft 402 kts 334°
2026-05-07 17:07 34.10047 -7.70055 22874 ft 405 kts 334°
2026-05-07 17:07 34.12710 -7.71207 23392 ft 408 kts 334°
2026-05-07 17:08 34.15402 -7.72372 23837 ft 411 kts 334°
2026-05-07 17:08 34.18130 -7.73482 24265 ft 417 kts 338°
2026-05-07 17:08 34.21033 -7.74041 24667 ft 431 kts 352°
2026-05-07 17:08 34.24057 -7.74069 25108 ft 435 kts 355°
2026-05-07 17:09 34.27099 -7.74052 25494 ft 437 kts 353°
2026-05-07 17:09 34.30144 -7.74211 25883 ft 437 kts 349°
2026-05-07 17:09 34.33148 -7.74519 26261 ft 439 kts 348°
2026-05-07 17:09 34.36206 -7.74861 26655 ft 442 kts 348°
2026-05-07 17:10 34.39284 -7.75178 27042 ft 445 kts 349°
2026-05-07 17:10 34.42384 -7.75453 27428 ft 448 kts 350°
2026-05-07 17:10 34.45501 -7.75695 27802 ft 451 kts 350°
2026-05-07 17:10 34.48648 -7.75920 28156 ft 453 kts 350°
2026-05-07 17:11 34.51805 -7.76136 28511 ft 456 kts 351°
2026-05-07 17:11 34.54981 -7.76352 28857 ft 458 kts 350°
2026-05-07 17:11 34.58179 -7.76572 29226 ft 460 kts 350°
2026-05-07 17:11 34.61341 -7.76793 29555 ft 462 kts 350°
2026-05-07 17:12 34.64560 -7.77020 29892 ft 464 kts 350°
2026-05-07 17:12 34.67794 -7.77248 30185 ft 466 kts 350°
2026-05-07 17:12 34.71047 -7.77478 30497 ft 467 kts 351°
2026-05-07 17:12 34.74291 -7.77707 30807 ft 467 kts 351°
2026-05-07 17:13 34.77538 -7.77953 31108 ft 468 kts 350°
2026-05-07 17:13 34.80785 -7.78219 31417 ft 468 kts 350°
2026-05-07 17:13 34.84027 -7.78494 31804 ft 465 kts 350°
2026-05-07 17:13 34.87246 -7.78767 32239 ft 462 kts 350°
2026-05-07 17:14 34.90455 -7.79038 32664 ft 460 kts 351°
2026-05-07 17:14 34.93644 -7.79306 33045 ft 458 kts 351°
2026-05-07 17:14 34.95747 -7.79482 33277 ft 457 kts 351°
2026-05-07 17:14 34.99954 -7.79834 33741 ft 455 kts 351°
2026-05-07 17:15 35.03122 -7.80098 33974 ft 457 kts 351°
2026-05-07 17:15 35.06307 -7.80365 33950 ft 460 kts 351°
2026-05-07 17:15 35.11646 -7.80810 33943 ft 457 kts 351°
2026-05-07 17:16 35.17903 -7.81328 33956 ft 451 kts 351°
2026-05-07 17:16 35.24171 -7.81854 33953 ft 451 kts 351°
2026-05-07 17:17 35.30303 -7.82997 33944 ft 443 kts 335°
2026-05-07 17:17 35.35989 -7.85873 33949 ft 441 kts 331°
2026-05-07 17:18 35.41751 -7.88591 33955 ft 446 kts 336°
2026-05-07 17:18 35.47653 -7.90979 33941 ft 445 kts 336°
2026-05-07 17:19 35.53494 -7.93397 33945 ft 440 kts 335°
2026-05-07 17:19 35.59256 -7.95884 33953 ft 442 kts 335°
2026-05-07 17:20 35.65060 -7.98435 33949 ft 442 kts 335°
2026-05-07 17:20 35.70860 -8.00989 33934 ft 440 kts 335°
2026-05-07 17:21 35.76624 -8.03529 33949 ft 439 kts 335°
2026-05-07 17:21 35.82340 -8.06050 33941 ft 438 kts 335°
2026-05-07 17:22 35.88084 -8.08588 33951 ft 438 kts 335°
2026-05-07 17:22 35.93833 -8.11132 33940 ft 440 kts 335°
2026-05-07 17:23 35.99639 -8.13702 33737 ft 446 kts 332°
2026-05-07 17:23 36.02570 -8.14997 33854 ft 450 kts 332°
2026-05-07 17:23 36.05531 -8.16312 33920 ft 453 kts 332°
2026-05-07 17:24 36.11444 -8.18948 33944 ft 456 kts 332°
2026-05-07 17:24 36.17420 -8.21610 33937 ft 454 kts 332°
2026-05-07 17:25 36.23321 -8.24234 33715 ft 452 kts 332°
2026-05-07 17:25 36.26299 -8.25568 33292 ft 454 kts 332°
2026-05-07 17:25 36.29269 -8.26897 32907 ft 453 kts 332°
2026-05-07 17:26 36.32204 -8.28210 32531 ft 454 kts 333°
2026-05-07 17:26 36.35183 -8.29545 32155 ft 456 kts 333°
2026-05-07 17:26 36.38173 -8.30886 31785 ft 458 kts 333°
2026-05-07 17:26 36.41187 -8.32238 31416 ft 459 kts 333°
2026-05-07 17:27 36.44198 -8.33590 31056 ft 460 kts 333°
2026-05-07 17:27 36.47178 -8.34927 30698 ft 461 kts 333°
2026-05-07 17:27 36.50145 -8.36260 30351 ft 462 kts 334°
2026-05-07 17:27 36.53189 -8.37628 29993 ft 464 kts 334°
2026-05-07 17:28 36.56174 -8.38972 29589 ft 465 kts 334°
2026-05-07 17:28 36.59218 -8.40343 29187 ft 466 kts 334°
2026-05-07 17:28 36.62278 -8.41723 28784 ft 467 kts 334°
2026-05-07 17:28 36.65334 -8.43101 28391 ft 468 kts 334°
2026-05-07 17:29 36.68406 -8.44489 27998 ft 469 kts 334°
2026-05-07 17:29 36.71476 -8.45877 27613 ft 470 kts 335°
2026-05-07 17:29 36.74482 -8.47236 27243 ft 471 kts 335°
2026-05-07 17:29 36.77561 -8.48630 26965 ft 469 kts 335°
2026-05-07 17:30 36.80584 -8.49997 26829 ft 466 kts 335°
2026-05-07 17:30 36.83587 -8.51359 26716 ft 471 kts 335°
2026-05-07 17:30 36.86692 -8.52771 26594 ft 475 kts 335°
2026-05-07 17:30 36.89739 -8.54157 26362 ft 476 kts 335°
2026-05-07 17:31 36.92712 -8.55508 26135 ft 474 kts 335°
2026-05-07 17:31 36.95818 -8.56920 25883 ft 475 kts 335°
2026-05-07 17:31 36.98913 -8.58329 25640 ft 472 kts 335°
2026-05-07 17:31 37.01957 -8.59711 25292 ft 459 kts 335°
2026-05-07 17:32 37.04923 -8.61058 24934 ft 450 kts 335°
2026-05-07 17:32 37.07843 -8.62388 24580 ft 441 kts 335°
2026-05-07 17:32 37.10708 -8.63697 24234 ft 435 kts 335°
2026-05-07 17:32 37.13513 -8.64982 23910 ft 434 kts 335°
2026-05-07 17:33 37.16344 -8.66283 23569 ft 433 kts 335°
2026-05-07 17:33 37.19179 -8.67585 23183 ft 432 kts 335°
2026-05-07 17:33 37.21959 -8.68862 22793 ft 431 kts 335°
2026-05-07 17:33 37.24779 -8.70157 22399 ft 430 kts 335°
2026-05-07 17:34 37.27493 -8.71404 22030 ft 429 kts 336°
2026-05-07 17:34 37.30300 -8.72694 21645 ft 428 kts 336°
2026-05-07 17:34 37.33091 -8.73977 21268 ft 427 kts 336°
2026-05-07 17:34 37.35874 -8.75258 20896 ft 425 kts 336°
2026-05-07 17:35 37.38647 -8.76535 20529 ft 423 kts 336°
2026-05-07 17:35 37.41407 -8.77807 20159 ft 420 kts 336°
2026-05-07 17:35 37.44075 -8.79037 19801 ft 415 kts 336°
2026-05-07 17:35 37.46774 -8.80283 19445 ft 412 kts 336°
2026-05-07 17:36 37.49439 -8.81516 19097 ft 412 kts 336°
2026-05-07 17:36 37.52128 -8.82761 18749 ft 411 kts 336°
2026-05-07 17:36 37.54806 -8.84001 18401 ft 409 kts 336°
2026-05-07 17:36 37.57474 -8.85237 18040 ft 407 kts 336°
2026-05-07 17:37 37.60128 -8.86465 17641 ft 405 kts 337°
2026-05-07 17:37 37.62839 -8.87427 17180 ft 405 kts 348°
2026-05-07 17:37 37.65635 -8.87775 16782 ft 401 kts 354°
2026-05-07 17:37 37.68367 -8.87950 16381 ft 395 kts 355°
2026-05-07 17:38 37.71107 -8.88214 16206 ft 380 kts 351°
2026-05-07 17:38 37.73622 -8.88629 16062 ft 359 kts 349°
2026-05-07 17:38 37.76074 -8.89105 15473 ft 355 kts 349°
2026-05-07 17:38 37.78418 -8.89564 14892 ft 353 kts 349°
2026-05-07 17:39 37.80837 -8.90015 14300 ft 350 kts 350°
2026-05-07 17:39 37.83239 -8.90439 13712 ft 347 kts 351°
2026-05-07 17:39 37.85561 -8.90830 13326 ft 337 kts 351°
2026-05-07 17:39 37.87834 -8.91201 13177 ft 321 kts 351°
2026-05-07 17:40 37.89982 -8.91545 12976 ft 310 kts 352°
2026-05-07 17:40 37.92116 -8.91886 12718 ft 308 kts 351°
2026-05-07 17:40 37.94236 -8.92225 12460 ft 306 kts 351°
2026-05-07 17:40 37.96351 -8.92562 12217 ft 306 kts 352°
2026-05-07 17:41 37.98396 -8.92887 12034 ft 303 kts 352°
2026-05-07 17:41 38.00495 -8.93222 11837 ft 305 kts 352°
2026-05-07 17:41 38.02600 -8.93557 11657 ft 312 kts 352°
2026-05-07 17:41 38.04770 -8.93903 11463 ft 316 kts 352°
2026-05-07 17:42 38.06923 -8.94247 11271 ft 316 kts 352°
2026-05-07 17:42 38.09114 -8.94596 10816 ft 318 kts 352°
2026-05-07 17:42 38.11313 -8.94947 10333 ft 318 kts 352°
2026-05-07 17:42 38.13461 -8.95290 9867 ft 315 kts 352°
2026-05-07 17:43 38.15609 -8.95632 9548 ft 305 kts 352°
2026-05-07 17:43 38.17692 -8.95965 9268 ft 295 kts 352°
2026-05-07 17:43 38.19633 -8.96275 8994 ft 286 kts 352°
2026-05-07 17:43 38.21582 -8.96587 8725 ft 278 kts 352°
2026-05-07 17:44 38.23448 -8.96859 8452 ft 271 kts 358°
2026-05-07 17:44 38.25285 -8.96530 8188 ft 266 kts 17°
2026-05-07 17:44 38.27068 -8.95832 7867 ft 270 kts 18°
2026-05-07 17:44 38.28868 -8.95084 7506 ft 273 kts 19°
2026-05-07 17:45 38.30645 -8.94340 7270 ft 271 kts 19°
2026-05-07 17:45 38.32396 -8.93605 7037 ft 269 kts 19°
2026-05-07 17:45 38.34127 -8.92879 6940 ft 263 kts 19°
2026-05-07 17:45 38.35861 -8.92154 6933 ft 261 kts 19°
2026-05-07 17:46 38.37588 -8.91431 6930 ft 260 kts 19°
2026-05-07 17:46 38.39305 -8.90723 6934 ft 269 kts 14°
2026-05-07 17:46 38.41213 -8.90677 6928 ft 279 kts 344°
2026-05-07 17:46 38.42937 -8.91774 6926 ft 278 kts 316°
2026-05-07 17:47 38.44056 -8.93723 6914 ft 270 kts 287°
2026-05-07 17:47 38.44318 -8.96030 6911 ft 260 kts 259°
2026-05-07 17:47 38.43728 -8.98118 6928 ft 254 kts 234°
2026-05-07 17:47 38.42656 -8.99835 6925 ft 247 kts 225°
2026-05-07 17:48 38.41459 -9.01428 6912 ft 244 kts 224°
2026-05-07 17:48 38.40306 -9.02949 6911 ft 239 kts 224°
2026-05-07 17:48 38.39174 -9.04469 6914 ft 235 kts 225°
2026-05-07 17:48 38.38063 -9.05980 6919 ft 233 kts 225°
2026-05-07 17:49 38.36958 -9.07489 6920 ft 232 kts 225°
2026-05-07 17:49 38.35858 -9.08993 6928 ft 231 kts 225°
2026-05-07 17:49 38.34839 -9.10567 6917 ft 232 kts 240°
2026-05-07 17:49 38.34325 -9.12508 6940 ft 233 kts 255°
2026-05-07 17:50 38.34022 -9.14537 6930 ft 233 kts 257°
2026-05-07 17:50 38.33737 -9.16541 6936 ft 232 kts 256°
2026-05-07 17:50 38.33436 -9.18562 6938 ft 233 kts 256°
2026-05-07 17:50 38.33124 -9.20607 6948 ft 236 kts 256°
2026-05-07 17:51 38.32806 -9.22677 6951 ft 240 kts 257°
2026-05-07 17:51 38.32742 -9.24813 6932 ft 243 kts 276°
2026-05-07 17:51 38.33084 -9.26925 6936 ft 242 kts 280°
2026-05-07 17:51 38.33467 -9.29003 6925 ft 240 kts 279°
2026-05-07 17:52 38.33818 -9.31034 6934 ft 237 kts 278°
2026-05-07 17:52 38.34156 -9.33086 6923 ft 236 kts 279°
2026-05-07 17:52 38.34522 -9.35142 6935 ft 239 kts 287°
2026-05-07 17:52 38.35433 -9.36880 6815 ft 250 kts 320°
2026-05-07 17:53 38.37042 -9.37704 6495 ft 260 kts 354°
2026-05-07 17:53 38.38826 -9.37419 6134 ft 259 kts 18°
2026-05-07 17:53 38.40420 -9.36472 5762 ft 258 kts 28°
2026-05-07 17:53 38.41972 -9.35341 5383 ft 256 kts 28°
2026-05-07 17:54 38.43521 -9.34253 5076 ft 251 kts 26°
2026-05-07 17:54 38.45043 -9.33223 4816 ft 244 kts 26°
2026-05-07 17:54 38.46531 -9.32226 4544 ft 238 kts 25°
2026-05-07 17:54 38.47949 -9.31277 4275 ft 232 kts 25°
2026-05-07 17:55 38.49353 -9.30336 4061 ft 222 kts 25°
2026-05-07 17:55 38.50660 -9.29457 4022 ft 202 kts 25°
2026-05-07 17:55 38.51831 -9.28669 4006 ft 182 kts 24°
2026-05-07 17:55 38.52935 -9.27927 4003 ft 176 kts 24°
2026-05-07 17:56 38.53985 -9.27222 4024 ft 173 kts 23°
2026-05-07 17:56 38.55067 -9.26496 4020 ft 176 kts 23°
2026-05-07 17:56 38.56154 -9.25774 4012 ft 176 kts 23°
2026-05-07 17:56 38.57235 -9.25051 4011 ft 175 kts 24°
2026-05-07 17:57 38.58313 -9.24334 4003 ft 173 kts 22°
2026-05-07 17:57 38.59036 -9.23898 3996 ft 174 kts 20°
2026-05-07 17:57 38.60515 -9.23067 3740 ft 181 kts 19°
2026-05-07 17:57 38.61639 -9.22456 3520 ft 178 kts 19°
2026-05-07 17:58 38.62769 -9.21847 3291 ft 172 kts 19°
2026-05-07 17:58 38.63829 -9.21275 3040 ft 166 kts 17°
2026-05-07 17:58 38.64878 -9.20713 2842 ft 160 kts 17°
2026-05-07 17:58 38.65880 -9.20176 2614 ft 155 kts 17°
2026-05-07 17:59 38.66872 -9.19641 2421 ft 156 kts 16°
2026-05-07 17:59 38.67880 -9.19101 2194 ft 159 kts 17°
2026-05-07 17:59 38.68891 -9.18561 1971 ft 156 kts 17°
2026-05-07 17:59 38.69874 -9.18031 1773 ft 155 kts 17°
2026-05-07 18:00 38.70873 -9.17495 1550 ft 155 kts 16°
2026-05-07 18:00 38.71877 -9.16955 1365 ft 158 kts 16°
2026-05-07 18:00 38.72556 -9.16592 1202 ft 160 kts 17°
2026-05-07 18:00 38.73569 -9.16046 995 ft 154 kts 17°
2026-05-07 18:01 38.74544 -9.15514 764 ft 149 kts 18°
2026-05-07 18:01 38.75470 -9.15016 626 ft 144 kts 20°
2026-05-07 18:01 38.76411 -9.14514 432 ft 148 kts 21°
2026-05-07 18:01 38.77331 -9.14025 351 ft 130 kts 21°
2026-05-07 18:02 38.78264 -9.13491 351 ft 36 kts 40°
2026-05-07 18:02 38.78366 -9.13358 347 ft 9 kts 53°
2026-05-07 18:02 38.78377 -9.13318 347 ft 2 kts 85°
2026-05-07 18:03 38.78377 -9.13317 347 ft 0 kts 85°
2026-05-07 18:03 38.78373 -9.13303 347 ft 3 kts 109°
2026-05-07 18:04 38.78358 -9.13270 351 ft 5 kts 136°
2026-05-07 18:04 38.78321 -9.13265 352 ft 7 kts 187°
2026-05-07 18:04 38.78259 -9.13289 352 ft 13 kts 200°
2026-05-07 18:04 38.78198 -9.13321 351 ft 7 kts 204°
2026-05-07 18:05 38.78143 -9.13351 346 ft 11 kts 202°
2026-05-07 18:05 38.78041 -9.13394 354 ft 19 kts 194°
2026-05-07 18:05 38.77904 -9.13387 351 ft 21 kts 165°
2026-05-07 18:05 38.77764 -9.13348 350 ft 20 kts 168°
2026-05-07 18:06 38.77626 -9.13322 346 ft 20 kts 175°
2026-05-07 18:06 38.77511 -9.13302 354 ft 13 kts 167°
2026-05-07 18:06 38.77443 -9.13282 346 ft 7 kts 167°
2026-05-07 18:06 38.77427 -9.13276 346 ft 0 kts 156°
2026-05-07 18:07 38.77419 -9.13265 355 ft 5 kts 126°
2026-05-07 18:07 38.77420 -9.13209 346 ft 7 kts 79°
2026-05-07 18:07 38.77427 -9.13161 346 ft 3 kts 77°
2026-05-07 18:07 38.77430 -9.13143 348 ft 1 kts 78°
2026-05-07 18:08 38.77432 -9.13135 349 ft 1 kts 78°
2026-05-07 18:08 38.77432 -9.13131 350 ft 0 kts 78°
2026-05-07 18:08 38.77432 -9.13130 350 ft 0 kts 78°